Rochester, NY

4:01 AM EST on December 11, 2019 (GMT -0500)
Greater Rochester International

Weather History for KROC - May, 2019

Change the Weather History Date:

Monday, May 13, 2019

  Actual Average Record
Temperature  
Mean Temperature 46 °F 56 °F  
Max Temperature 48 °F 67 °F 89 °F (1879)
Min Temperature 43 °F 45 °F 31 °F (2005)
Degree Days  
Heating Degree Days 19 10  
Month to date heating degree days 160 148  
Since 1 July heating degree days 6284 6451  
Cooling Degree Days 0 1  
Month to date cooling degree days 0 4  
Year to date cooling degree days 0 8  
Moisture  
Dew Point 43 °F    
Average Humidity 88    
Maximum Humidity 93    
Minimum Humidity 83    
Precipitation  
Precipitation 0.38 in 0.09 in 1.23 in (1990)
Month to date precipitation 1.98 1.16  
Year to date precipitation 11.91 10.75  
Snow  
Snow 0.00 in 0.00 in T in (2013)
Month to date snowfall 0.0 0.3  
Since 1 July snowfall 97.1 99.4  
Snow Depth 0.00 in    
Sea Level Pressure  
Sea Level Pressure 29.78 in    
Wind  
Wind Speed 10 mph (SSE)    
Max Wind Speed 16 mph    
Max Gust Speed 20 mph    
Visibility 7 miles    
Events Rain    
T = Trace of Precipitation, MM = Missing Value Source: NWS Daily Summary

Daily Weather History Graph

Daily Weather History Graph

Search for Another Location

Airport or City:

Astronomy

May. 13, 2019 Rise Set
Actual Time 5:49 AM EDT 8:25 PM EDT
Civil Twilight 5:17 AM EDT 8:57 PM EDT
Nautical Twilight 4:36 AM EDT 9:38 PM EDT
Astronomical Twilight 3:50 AM EDT 10:25 PM EDT
Moon 2:22 PM EDT (5/13) 3:19 AM EDT (5/13)
Length of Visible Light 15h 40m
Length of Day
14h 35m
Waxing Gibbous, 68% of the Moon is Illuminated
May 13
Waxing Gibbous
May 18
Full
May 26
Last Quarter
Jun 3
New
Jun 10
First Quarter

Hourly Weather History & Observations

Time (EDT) Temp. Windchill Dew Point Humidity Pressure Visibility Wind Dir Wind Speed Gust Speed Precip Events Conditions
12:54 AM 44.1 °F 38.6 °F 39.0 °F 82% 29.88 in 10.0 mi ESE 10.4 mph - N/A   Overcast
1:54 AM 43.0 °F 37.2 °F 39.9 °F 89% 29.86 in 10.0 mi East 10.4 mph - 0.01 in Rain Light Rain
2:54 AM 43.0 °F 38.2 °F 39.9 °F 89% 29.83 in 10.0 mi ESE 8.1 mph - 0.02 in Rain Light Rain
3:54 AM 43.0 °F 37.2 °F 39.0 °F 86% 29.81 in 10.0 mi ESE 10.4 mph - 0.03 in   Light Drizzle
4:54 AM 43.0 °F 37.2 °F 39.9 °F 89% 29.81 in 6.0 mi ESE 10.4 mph - 0.01 in Rain Light Rain
5:54 AM 43.0 °F 37.7 °F 39.9 °F 89% 29.80 in 10.0 mi SE 9.2 mph - 0.02 in Rain Light Rain
6:39 AM 43.0 °F 37.2 °F 39.9 °F 89% 29.78 in 10.0 mi ESE 10.4 mph - 0.00 in   Overcast
6:54 AM 43.0 °F 37.7 °F 39.9 °F 89% 29.80 in 5.0 mi ESE 9.2 mph - 0.00 in   Light Drizzle
7:09 AM 43.0 °F 36.8 °F 39.9 °F 89% 29.78 in 4.0 mi ESE 11.5 mph - 0.00 in   Light Drizzle
7:43 AM 43.0 °F 36.4 °F 39.9 °F 89% 29.78 in 5.0 mi ESE 12.7 mph - 0.01 in   Light Drizzle
7:54 AM 43.0 °F 37.2 °F 39.9 °F 89% 29.81 in 3.0 mi SE 10.4 mph - 0.01 in   Light Drizzle
8:30 AM 44.1 °F 38.6 °F 39.9 °F 85% 29.79 in 10.0 mi SE 10.4 mph - 0.00 in   Light Drizzle
8:54 AM 44.1 °F 38.1 °F 41.0 °F 89% 29.81 in 6.0 mi SE 11.5 mph - 0.00 in   Light Drizzle
9:54 AM 46.0 °F 41.0 °F 42.1 °F 86% 29.79 in 10.0 mi ESE 10.4 mph - 0.01 in   Overcast
10:54 AM 46.9 °F - 43.0 °F 86% 29.77 in 10.0 mi SE 10.4 mph 18.4 mph 0.00 in   Overcast
11:54 AM 46.9 °F - 42.1 °F 83% 29.77 in 10.0 mi SE 11.5 mph - N/A   Overcast
12:40 PM 46.9 °F - 43.0 °F 86% 29.75 in 2.5 mi SSE 9.2 mph - 0.00 in Rain Light Rain
12:54 PM 46.9 °F - 44.1 °F 90% 29.76 in 2.0 mi SE 8.1 mph - 0.01 in Rain Light Rain
1:40 PM 46.9 °F - 44.1 °F 90% 29.74 in 3.0 mi SE 9.2 mph - 0.02 in Rain Light Rain
1:54 PM 46.9 °F - 45.0 °F 93% 29.77 in 2.5 mi SE 9.2 mph - 0.03 in Rain Light Rain
2:17 PM 46.9 °F - 45.0 °F 93% 29.75 in 4.0 mi SE 8.1 mph - 0.03 in Rain Light Rain
2:54 PM 48.0 °F - 45.0 °F 89% 29.76 in 10.0 mi SE 9.2 mph - 0.08 in Rain Light Rain
3:43 PM 48.0 °F - 44.1 °F 86% 29.72 in 10.0 mi SE 11.5 mph - 0.01 in Rain Light Rain
3:54 PM 48.0 °F - 44.1 °F 86% 29.74 in 10.0 mi SE 10.4 mph - 0.01 in Rain Light Rain
4:46 PM 48.0 °F - 44.1 °F 86% 29.72 in 10.0 mi SE 10.4 mph - 0.02 in Rain Light Rain
4:54 PM 48.0 °F - 44.1 °F 86% 29.74 in 10.0 mi SE 9.2 mph - 0.02 in Rain Light Rain
5:54 PM 48.0 °F - 45.0 °F 89% 29.75 in 10.0 mi SE 6.9 mph - 0.02 in Rain Light Rain
6:54 PM 48.0 °F - 45.0 °F 89% 29.75 in 9.0 mi SE 9.2 mph - 0.02 in Rain Light Rain
7:04 PM 48.0 °F - 45.0 °F 89% 29.74 in 10.0 mi SE 5.8 mph - 0.00 in Rain Light Rain
7:20 PM 48.0 °F - 45.0 °F 89% 29.74 in 2.5 mi SE 6.9 mph - 0.01 in Rain Light Rain
7:41 PM 46.9 °F - 45.0 °F 93% 29.75 in 3.0 mi SSE 5.8 mph - 0.02 in Rain Light Rain
7:54 PM 46.9 °F - 45.0 °F 93% 29.77 in 2.5 mi SE 5.8 mph - 0.03 in Rain Light Rain
8:09 PM 48.0 °F - 45.0 °F 89% 29.75 in 1.5 mi South 4.6 mph - 0.01 in Rain Light Rain
8:19 PM 48.2 °F - 46.4 °F 93% 29.76 in 2.5 mi SW 6.9 mph - N/A Rain Light Rain
8:22 PM 48.0 °F - 45.0 °F 89% 29.76 in 3.0 mi WSW 9.2 mph - 0.02 in Rain Light Rain
8:43 PM 48.0 °F - 45.0 °F 89% 29.76 in 10.0 mi West 10.4 mph - 0.03 in Rain Light Rain
8:54 PM 48.0 °F - 45.0 °F 89% 29.78 in 10.0 mi WSW 12.7 mph - 0.03 in Rain Light Rain
9:16 PM 46.9 °F - 44.1 °F 90% 29.77 in 5.0 mi WSW 10.4 mph - 0.00 in Rain Light Rain
9:28 PM 46.9 °F - 44.1 °F 90% 29.77 in 5.0 mi WSW 9.2 mph - 0.01 in   Overcast
9:54 PM 46.9 °F - 44.1 °F 90% 29.79 in 5.0 mi West 8.1 mph - 0.01 in Rain Light Rain
10:25 PM 46.0 °F 41.9 °F 44.1 °F 93% 29.78 in 4.0 mi WSW 8.1 mph - 0.01 in Rain Light Rain
10:45 PM 46.0 °F 41.4 °F 43.0 °F 89% 29.78 in 7.0 mi WSW 9.2 mph - 0.01 in Rain Light Rain
10:54 PM 46.0 °F 41.9 °F 43.0 °F 89% 29.80 in 9.0 mi WSW 8.1 mph - 0.01 in Rain Light Rain
11:54 PM 46.0 °F 41.4 °F 43.0 °F 89% 29.79 in 10.0 mi WSW 9.2 mph - 0.00 in   Overcast